ONEWEB-0218, 48214

Orbit data source: Space-Track

ONEWEB-0218, 48214 is a payload satellite owned by One Web (NAA) (UK) in LEO that was launched on Sun, 25 Apr 2021 UTC via a SOYUZ-2-1B launch vehicle from the Vostochny Cosmodrome (VOSTO). Payload-class satellites include a variety of spacecraft equipped with specific instruments for various scientific and technological missions. These include communications satellites like Starlink; space stations such as the ISS; scientific satellites like the Hubble; Earth observation satellites from companies like Planet Labs, Umbra, and HawkEye 360; GPS; miniature CubeSats for education and research; and military/defense satellites.

Loading next visibility...
Identifier
48214, 2021-031E
Orbit
LEO
Country
Flag of UKUK
Related business
Manufacturer
One Web
Mission
Operational Commercial Communications
Bus & Motor
ARROW, Unknown motor
Mass
148 kg wet, ~140 kg dry
Launch date (UTC)
2021-04-25 (5 years ago)
Launch vehicle
SOYUZ-2-1B
Launch site
Vostochny Cosmodrome (VOSTO)
Object type
Payload
Rocket body
Debris
Shape & HBR
Trap Box + 2 Pan, 6.7 m
Radar Cross Section
3.464 m², Large (>1 m²)

Expand to show TLE details & history
Last TLE update: 1 day ago

TLE from 1 day ago
0 ONEWEB-0218
1 48214U 21031E   25305.50911455 -.00000158  00000-0 -46034-3 0  9997
2 48214  87.9019 335.0419 0002798  98.1595 261.9853 13.14503635218469
Epoch: 2025-11-01T12:13Z
TLE epoch observation values (Epoch: 2025-11-01T12:13:07.497Z)
Latitude
0.00008°
Longitude
110.72249°
Altitude
1,208.977 km
Speed
7.249 km/s
True Right ascension
22h 20m 10s
True Declination
0° 00' 00"
Sunlit
Object was in daylight at epoch
Visualization orbit readout
Latitude
Unknown
Longitude
Unknown
Altitude
Unknown
Speed
Unknown
Apparent Right ascension
Unknown
Apparent Declination
Unknown
Sunlit
N/A
Visualization observer readout
Local Sidereal Time
09:11:40
Azimuth
Unknown
Elevation
Unknown
Doppler factor
Unknown
Orbital elements
Apogee altitude
1,205.022 km
Perigee altitude
1,200.78 km
Semi-major axis
7,581.038 km
Eccentricity
0.00028
Inclination
87.9019°
RAAN
335.0419°
Arg. of periapsis
98.1595°
True anomaly
261.95355°
Mean anomaly
261.9853°
Eccentric anomaly
261.96943°
Mean motion
3.28814 °/min
Orbital period
109.48 mins
BSTAR
-0.00046034
Loading maneuver chart data...
Computing Atmospheric mass density...
Loading historical data...
Loading historical data...
Loading historical data...
Loading historical data...
Loading historical data...
Loading historical data...
Loading historical data...

Documentation

Showing up to 5 results
|